User: anonymous   Login
Location: Unspecified
(0.0000°N, 0.0000°E)
Time: 19:15:18
(UTC+00:00)
Language:

Sich 1 - Orbit

View from above orbital plane
View from above orbital plane
View from above satellite
View from above satellite

Ground track
Ground track

The orbit data is extracted from the following two-line orbital elements,

1 23657U 95046A   19340.87121577 +.00000167 +00000-0 +16191-4 0  9998
2 23657 082.5255 132.6204 0021448 336.9289 023.0962 14.86111375311227
Epoch (UTC): 06 December 2019 20:54:33
Eccentricity: 0.0021448
inclination: 82.5255°
perigee height: 595 km
apogee height: 625 km
right ascension of ascending node: 132.6204°
argument of perigee: 336.9289°
revolutions per day: 14.86111375
mean anomaly at epoch: 23.0962°
orbit number at epoch: 31122

The dashed part of the orbit path shows where the satellite is in the earth's shadow,  

DLR